sat.trackr.live / text

‹ back to catalog

STARLINK-35719

NORAD 67183 · 2025-303W

PAYLOAD ACTIVE UNKNOWN

§ Identity

Operator
Country
US
Launch date
2025-12-17
Launch site
AFETR
Launch vehicle
Mass (kg)
RCS (m²)

Purposes: comms

External: N2YO · Heavens-Above · Gunter

§ Orbital elements

Epoch: 2026-05-24T23:09:57.472128Z

Period
94.27 min
Inclination
42.9981°
Eccentricity
0.0001619
Mean motion
15.27590714 rev/d
Perigee alt
481.9 km
Apogee alt
484.1 km
Semi-major
6,861.2 km
B*
4.3387e-4
RAAN
239.6754°
Arg perigee
275.7556°
Mean anomaly
84.3111°
Rev number
2,440

§ Raw data

STARLINK-357191 67183U 25303W   26144.96524852  .00011700  00000+0  43387-3 0  99922 67183  42.9981 239.6754 0001619 275.7556  84.3111 15.27590714 24409

JSON: /api/v1/satellites/67183 · /tle

For live sub-satellite position, see the globe view (requires WebGL).

§ Visibility from observer

Set your observer location to see the next 7 days of passes ≥ 10°. The values pass through the URL so the page stays shareable.

No JS? Fill the form by hand. The geolocation button needs JavaScript.